Location: San Antonio
(29.4240°N, 98.4930°W)
Time: 15:57:00
(UTC-05:00)

BlueWalker 3 - Pass Details

Date: 19 June 2024
Orbit: 480 x 492 km, 53.2° (Epoch: 11 July)

Event Time Altitude Azimuth Distance (km) Brightness Sun altitude
Rises 22:35:02 0° 264° (W) 2,534 6.1 -21.6°
Reaches altitude 10° 22:38:07 10° 291° (WNW) 1,654 5.5 -22.1°
Maximum altitude 22:40:04 14° 323° (NW) 1,444 5.3 -22.4°
Drops below altitude 10° 22:42:00 10° 354° (N) 1,654 5.2 -22.7°
Sets 22:45:05 0° 22° (NNE) 2,534 5.8 -23.1°
